Latest Weather Observations for Moorabbin Airport

IDV60901

Issued at 2:41 pm EDT Sunday 7 February 2016 (issued every 10 minutes, with the page automatically refreshed every 10 minutes)

About weather observations | Map of Melbourne area stations | Latest observations for Melbourne area | Other Formats
Station Details ID: 086077 Name: MOORABBIN AIRPORT Lat: -37.98 Lon: 145.10 Height: 12.1 m
Data from the previous 72 hours. | See also: Recent months at Moorabbin Airport
Date/Time
EDT
Tmp

°C
App
Tmp
°C
Dew
Point
°C
Rel
Hum
%
Delta-T

°C
Wind Press
QNH
hPa
Press
MSL
hPa
Rain
since
9 am
mm
Dir
 
Spd
km/h
Gust
km/h
Spd
kts
Gust
kts
07/02:30pm 25.5 24.5 18.9 67 4.2 SSW 22 30 12 16 1016.2 1016.2 0.0
07/02:00pm 26.1 25.6 19.2 65 4.4 SW 20 24 11 13 1016.3 1016.3 0.0
07/01:30pm 25.9 25.4 17.8 61 5.1 SW 17 24 9 13 1016.4 1016.4 0.0
07/01:00pm 25.1 25.3 18.5 67 4.2 SSW 15 20 8 11 1016.5 1016.5 0.0
07/12:30pm 24.8 24.7 18.7 69 3.9 SW 17 26 9 14 1016.8 1016.8 0.0
07/12:00pm 24.2 24.7 18.4 70 3.7 SW 13 17 7 9 1016.9 1016.9 0.0
07/11:30am 23.4 23.4 18.9 76 2.9 SW 17 20 9 11 1017.1 1017.1 0.0
07/11:00am 24.2 23.5 18.6 71 3.5 SW 20 26 11 14 1017.2 1017.2 0.0
07/10:30am 24.6 24.7 18.3 68 4.0 WSW 15 20 8 11 1017.2 1017.2 0.0
07/10:00am 24.1 23.5 17.6 67 4.0 WSW 17 26 9 14 1017.1 1017.1 0.0
07/09:30am 25.1 25.7 15.7 56 5.7 WNW 7 11 4 6 1016.7 1016.7 0.0
07/09:00am 23.8 24.4 15.8 61 4.8 WNW 7 11 4 6 1016.6 1016.6 0.0
07/08:30am 22.7 23.4 15.5 64 4.3 NW 6 7 3 4 1016.2 1016.2 0.0
07/08:00am 21.6 22.2 15.2 67 3.8 NNW 6 6 3 3 1015.8 1015.8 0.0
07/07:30am 19.9 20.5 15.3 75 2.7 NNW 6 7 3 4 1015.6 1015.6 0.0
07/07:00am 19.3 19.6 15.0 76 2.5 NNW 7 9 4 5 1015.3 1015.3 0.0
07/06:30am 18.6 18.7 14.5 77 2.4 N 7 9 4 5 1015.0 1015.0 0.0
07/06:00am 18.8 18.7 14.9 78 2.3 N 9 11 5 6 1014.7 1014.7 0.0
07/05:30am 18.3 18.7 15.4 83 1.7 N 7 9 4 5 1014.6 1014.6 0.0
07/05:00am 17.4 18.9 14.7 84 1.6 CALM 0 0 0 0 1014.6 1014.6 0.0
07/04:30am 17.5 18.5 14.4 82 1.8 SE 2 6 1 3 1014.5 1014.5 0.0
07/04:00am 18.2 19.1 15.1 82 1.8 E 4 6 2 3 1014.4 1014.4 0.0
07/03:30am 18.6 19.1 14.9 79 2.2 E 6 7 3 4 1014.5 1014.5 0.0
07/03:00am 18.4 18.8 14.7 79 2.1 ESE 6 6 3 3 1014.6 1014.6 0.0
07/02:30am 19.2 19.5 14.9 76 2.5 E 7 9 4 5 1014.5 1014.5 0.0
07/02:00am 20.0 20.8 15.8 77 2.5 ENE 6 7 3 4 1014.6 1014.6 0.0
07/01:30am 19.8 20.2 15.2 75 2.7 ESE 7 9 4 5 1014.7 1014.7 0.0
07/01:00am 19.7 19.7 15.1 75 2.7 SE 9 11 5 6 1014.8 1014.8 0.0
07/12:30am 20.2 20.0 14.8 71 3.2 ESE 9 13 5 7 1014.9 1014.9 0.0
07/12:00am 20.9 20.4 14.8 68 3.6 SE 11 13 6 7 1014.8 1014.8 0.0
 
Date/Time
EDT
Tmp

°C
App
Tmp
°C
Dew
Point
°C
Rel
Hum
%
Delta-T

°C
Wind Press
QNH
hPa
Press
MSL
hPa
Rain
since
9 am
mm
Dir
 
Spd
km/h
Gust
km/h
Spd
kts
Gust
kts
06/11:30pm 21.8 20.7 15.2 66 3.9 SE 15 17 8 9 1014.7 1014.7 0.0
06/11:00pm 22.9 21.7 15.0 61 4.7 SE 15 17 8 9 1014.7 1014.7 0.0
06/10:30pm 23.4 22.1 14.9 59 5.1 SE 15 17 8 9 1014.6 1014.6 0.0
06/10:00pm 24.6 23.0 15.0 55 5.7 ESE 17 20 9 11 1014.4 1014.4 0.0
06/09:30pm 25.8 24.2 14.9 51 6.5 ESE 17 22 9 12 1014.0 1014.0 0.0
06/09:00pm 26.0 25.4 15.7 53 6.3 SE 13 15 7 8 1013.6 1013.6 0.0
06/08:30pm 27.7 25.7 15.0 45 7.7 SE 19 26 10 14 1013.3 1013.3 0.0
06/08:00pm 28.9 26.6 14.7 42 8.6 ESE 20 26 11 14 1013.1 1013.1 0.0
06/07:30pm 29.8 27.0 14.4 39 9.3 ESE 22 28 12 15 1012.9 1012.9 0.0
06/07:00pm 30.8 27.4 11.2 30 11.3 SE 20 28 11 15 1012.9 1012.9 0.0
06/06:30pm 31.0 27.6 11.4 30 11.4 SE 20 33 11 18 1012.8 1012.8 0.0
06/06:00pm 31.5 28.5 11.8 30 11.5 E 19 33 10 18 1012.8 1012.8 0.0
06/05:30pm 31.3 29.5 12.2 31 11.2 SSE 13 19 7 10 1013.1 1013.1 0.0
06/05:00pm 31.2 28.6 12.1 31 11.2 SSW 17 20 9 11 1013.4 1013.4 0.0
06/04:30pm 31.3 28.4 11.1 29 11.7 SW 17 20 9 11 1013.7 1013.7 0.0
06/04:00pm 31.3 27.8 8.9 25 12.5 SW 17 22 9 12 1014.1 1014.1 0.0
06/03:30pm 30.9 27.3 9.7 27 12.0 SSW 19 24 10 13 1014.5 1014.5 0.0
06/03:00pm 30.8 27.5 11.7 31 11.1 SSW 20 26 11 14 1014.6 1014.6 0.0
06/02:30pm 31.4 28.9 12.2 30 11.3 SSW 17 24 9 13 1014.9 1014.9 0.0
06/02:00pm 30.3 30.1 11.8 32 10.8 SSE 4 13 2 7 1015.3 1015.3 0.0
06/01:30pm 29.7 29.2 12.2 34 10.2 ENE 6 11 3 6 1015.7 1015.7 0.0
06/01:00pm 29.1 27.5 12.9 37 9.5 N 13 19 7 10 1016.0 1016.0 0.0
06/12:30pm 28.0 26.7 12.4 38 9.1 NNE 11 20 6 11 1016.4 1016.4 0.0
06/12:00pm 27.3 25.1 13.3 42 8.2 N 17 24 9 13 1016.8 1016.8 0.0
06/11:30am 27.3 24.6 13.6 43 8.1 N 20 28 11 15 1017.0 1017.0 0.0
06/11:00am 26.2 23.6 13.7 46 7.4 N 20 26 11 14 1017.2 1017.2 0.0
06/10:30am 24.8 21.3 13.4 49 6.7 N 24 33 13 18 1017.3 1017.3 0.0
06/10:00am 24.2 20.3 13.4 51 6.3 N 26 39 14 21 1017.4 1017.4 0.0
06/09:30am 23.0 20.4 13.8 56 5.4 N 20 32 11 17 1017.5 1017.5 0.0
06/09:00am 21.2 20.9 14.4 65 4.0 NNE 9 13 5 7 1017.7 1017.7 0.0
06/08:30am 19.3 19.3 14.3 73 2.9 N 7 11 4 6 1017.7 1017.7 0.0
06/08:00am 18.2 17.8 14.1 77 2.3 NNE 9 13 5 7 1017.4 1017.4 0.0
06/07:30am 16.9 16.2 14.2 84 1.5 N 11 13 6 7 1017.2 1017.2 0.0
06/07:00am 15.4 14.7 13.1 86 1.3 N 9 11 5 6 1016.9 1016.9 0.0
06/06:30am 14.2 13.4 11.7 85 1.3 NNE 7 9 4 5 1016.7 1016.7 0.0
06/06:00am 14.5 14.7 11.8 84 1.5 NNE 2 6 1 3 1016.3 1016.3 0.0
06/05:30am 15.1 13.7 12.2 83 1.6 NNE 11 15 6 8 1016.4 1016.4 0.0
06/05:00am 16.0 14.8 12.9 82 1.7 ENE 11 13 6 7 1015.9 1015.9 0.0
06/04:30am 15.1 14.0 11.9 81 1.7 E 9 11 5 6 1015.9 1015.9 0.0
06/04:00am 15.8 14.8 12.2 79 2.0 E 9 11 5 6 1016.0 1016.0 0.0
06/03:30am 16.3 15.7 12.3 77 2.2 E 7 9 4 5 1016.1 1016.1 0.0
06/03:00am 16.9 16.1 12.8 77 2.3 ENE 9 11 5 6 1016.1 1016.1 0.0
06/02:30am 17.4 15.9 13.1 76 2.4 E 13 17 7 9 1016.1 1016.1 0.0
06/02:00am 16.9 14.9 12.8 77 2.3 ESE 15 17 8 9 1016.3 1016.3 0.0
06/01:30am 17.1 15.1 12.6 75 2.5 ESE 15 19 8 10 1016.5 1016.5 0.0
06/01:00am 17.6 15.5 12.3 71 2.9 ESE 15 20 8 11 1016.6 1016.6 0.0
06/12:30am 18.2 15.8 12.6 70 3.1 ESE 17 24 9 13 1016.7 1016.7 0.0
06/12:00am 18.5 15.7 12.5 68 3.3 ESE 19 28 10 15 1016.8 1016.8 0.0
 
Date/Time
EDT
Tmp

°C
App
Tmp
°C
Dew
Point
°C
Rel
Hum
%
Delta-T

°C
Wind Press
QNH
hPa
Press
MSL
hPa
Rain
since
9 am
mm
Dir
 
Spd
km/h
Gust
km/h
Spd
kts
Gust
kts
05/11:30pm 19.0 15.2 12.5 66 3.6 ESE 24 32 13 17 1016.8 1016.8 0.0
05/11:00pm 19.3 14.7 12.3 64 3.9 ESE 28 39 15 21 1016.8 1016.8 0.0
05/10:30pm 19.7 14.5 12.7 64 3.9 ESE 32 43 17 23 1016.9 1016.9 0.0
05/10:00pm 20.2 15.8 12.9 63 4.1 ESE 28 39 15 21 1017.0 1017.0 0.0
05/09:30pm 20.8 16.4 13.0 61 4.4 ESE 28 37 15 20 1016.9 1016.9 0.0
05/09:00pm 21.6 17.2 13.0 58 4.9 SE 28 35 15 19 1016.6 1016.6 0.0
05/08:30pm 22.5 17.6 12.7 54 5.6 SE 30 39 16 21 1016.4 1016.4 0.0
05/08:00pm 23.6 18.3 12.6 50 6.3 ESE 32 46 17 25 1016.0 1016.0 0.0
05/07:30pm 24.8 20.8 13.0 47 6.8 ESE 26 35 14 19 1015.7 1015.7 0.0
05/07:00pm 25.6 20.3 13.1 46 7.3 SE 33 43 18 23 1015.5 1015.5 0.0
05/06:30pm 26.2 20.7 12.6 43 7.9 ESE 33 44 18 24 1015.4 1015.4 0.0
05/06:00pm 27.0 21.7 13.0 42 8.2 SE 33 44 18 24 1015.5 1015.5 0.0
05/05:30pm 27.4 22.0 12.2 39 8.8 SE 32 44 17 24 1015.6 1015.6 0.0
05/05:00pm 28.0 22.4 12.0 37 9.2 SE 33 41 18 22 1015.7 1015.7 0.0
05/04:30pm 27.9 23.1 11.5 36 9.4 SE 28 39 15 21 1016.1 1016.1 0.0
05/04:00pm 28.5 23.3 12.8 38 9.2 SE 32 41 17 22 1016.2 1016.2 0.0
05/03:30pm 28.2 23.4 11.7 36 9.5 SE 28 41 15 22 1016.5 1016.5 0.0
05/03:00pm 28.8 24.7 11.4 34 10.0 SE 24 35 13 19 1016.9 1016.9 0.0
05/02:30pm 27.8 24.3 10.9 35 9.6 SE 20 33 11 18 1017.3 1017.3 0.0
05/02:00pm 27.6 23.6 10.3 34 9.7 SSE 22 30 12 16 1017.6 1017.6 0.0
05/01:30pm 27.3 24.8 10.9 36 9.3 SE 15 28 8 15 1018.1 1018.1 0.0
05/01:00pm 25.9 23.8 11.3 40 8.3 ESE 13 24 7 13 1018.6 1018.6 0.0
05/12:30pm 25.6 24.3 11.4 41 8.0 E 9 17 5 9 1019.0 1019.0 0.0
05/12:00pm 24.1 22.4 11.1 44 7.3 ESE 11 19 6 10 1019.4 1019.4 0.0
05/11:30am 22.6 20.3 10.4 46 6.7 E 13 20 7 11 1019.6 1019.6 0.0
05/11:00am 22.1 20.2 11.8 52 5.8 ESE 13 20 7 11 1019.8 1019.8 0.0
05/10:30am 21.3 19.2 11.1 52 5.6 ENE 13 17 7 9 1019.9 1019.9 0.0
05/10:00am 20.6 17.8 11.5 56 5.0 E 17 26 9 14 1020.0 1020.0 0.0
05/09:30am 19.4 16.1 11.7 61 4.3 E 20 28 11 15 1020.0 1020.0 0.0
05/09:00am 18.5 15.3 11.8 65 3.7 E 20 26 11 14 1020.0 1020.0 0.0
05/08:30am 17.6 14.7 12.3 71 2.9 E 19 24 10 13 1019.9 1019.9 0.0
05/08:00am 16.6 13.6 12.0 74 2.5 ESE 19 24 10 13 1019.6 1019.6 0.0
05/07:30am 16.0 13.0 12.0 77 2.2 ESE 19 26 10 14 1019.3 1019.3 0.0
05/07:00am 14.5 12.3 12.2 86 1.2 ESE 15 19 8 10 1019.1 1019.1 0.0
05/06:30am 14.4 12.5 11.9 85 1.3 SE 13 19 7 10 1018.8 1018.8 0.0
05/06:00am 15.0 12.9 12.5 85 1.4 SE 15 20 8 11 1018.5 1018.5 0.0
05/05:30am 15.6 14.0 12.9 84 1.5 SE 13 19 7 10 1018.4 1018.4 0.0
05/05:00am 15.9 13.8 13.6 86 1.3 SSE 17 20 9 11 1018.3 1018.3 0.0
05/04:30am 16.3 14.9 14.5 89 1.0 SSE 15 20 8 11 1018.3 1018.3 0.0
05/04:00am 16.4 15.4 14.6 89 1.0 SSE 13 17 7 9 1018.5 1018.5 0.0
05/03:30am 17.2 16.4 15.2 88 1.2 S 13 15 7 8 1018.6 1018.6 0.0
05/03:00am 16.9 15.9 14.7 87 1.3 S 13 17 7 9 1018.8 1018.8 0.0
05/02:30am 17.1 16.0 14.4 84 1.5 S 13 15 7 8 1019.0 1019.0 0.0
05/02:00am 18.0 17.4 14.7 81 1.9 S 11 15 6 8 1019.3 1019.3 0.0
05/01:30am 17.8 16.8 14.5 81 1.9 S 13 19 7 10 1019.5 1019.5 0.0
05/01:00am 18.0 17.0 14.5 80 2.0 SSE 13 20 7 11 1019.6 1019.6 0.0
05/12:30am 17.9 17.2 14.4 80 2.0 S 11 13 6 7 1019.6 1019.6 0.0
05/12:00am 17.9 16.4 14.2 79 2.1 S 15 19 8 10 1019.7 1019.7 0.0
 
Date/Time
EDT
Tmp

°C
App
Tmp
°C
Dew
Point
°C
Rel
Hum
%
Delta-T

°C
Wind Press
QNH
hPa
Press
MSL
hPa
Rain
since
9 am
mm
Dir
 
Spd
km/h
Gust
km/h
Spd
kts
Gust
kts
04/11:30pm 18.0 16.0 13.9 77 2.3 SSE 17 24 9 13 1019.7 1019.7 0.0
04/11:00pm 18.0 16.0 13.9 77 2.3 S 17 20 9 11 1020.0 1020.0 0.0
04/10:30pm 17.9 15.4 13.6 76 2.4 S 19 24 10 13 1020.0 1020.0 0.0
04/10:00pm 17.9 15.2 13.6 76 2.4 S 20 28 11 15 1020.1 1020.1 0.0
04/09:30pm 18.1 15.9 13.2 73 2.8 SSE 17 22 9 12 1020.1 1020.1 0.0
04/09:00pm 18.1 15.2 12.8 71 3.0 SSE 20 24 11 13 1019.9 1019.9 0.0
04/08:30pm 18.5 15.6 12.9 70 3.1 S 20 28 11 15 1019.6 1019.6 0.0
04/08:00pm 19.0 16.0 12.5 66 3.6 S 20 30 11 16 1019.4 1019.4 0.0
04/07:30pm 19.6 16.2 12.4 63 4.0 S 22 32 12 17 1019.0 1019.0 0.0
04/07:00pm 19.9 15.6 11.9 60 4.4 SSW 26 33 14 18 1018.7 1018.7 0.0
04/06:30pm 20.4 15.8 12.4 60 4.5 SSW 28 37 15 20 1018.4 1018.4 0.0
04/06:00pm 20.9 16.1 11.8 56 5.1 SSW 28 33 15 18 1018.3 1018.3 0.0
04/05:30pm 21.2 17.0 12.3 57 5.0 SSW 26 35 14 19 1018.4 1018.4 0.0
04/05:00pm 22.0 17.9 12.8 56 5.2 SSW 26 35 14 19 1018.6 1018.6 0.0
04/04:30pm 21.0 17.4 12.9 60 4.6 SSW 24 32 13 17 1018.6 1018.6 0.0
04/04:00pm 21.0 16.7 11.9 56 5.1 SSW 26 33 14 18 1018.7 1018.7 0.0
04/03:30pm 21.3 16.5 13.0 59 4.7 SW 30 39 16 21 1019.0 1019.0 0.0
04/03:00pm 21.4 16.3 12.0 55 5.3 SW 30 41 16 22 1019.1 1019.1 0.0

Latest Capital City Observations: Canberra | Sydney | Melbourne | Brisbane | Adelaide | Perth | Hobart | Darwin

Other Formats:

Comma delimited format used in spreadsheet applications
http://www.bom.gov.au/fwo/IDV60901/IDV60901.94870.axf

JavaScript Object Notation format (JSON) in row-major order
http://www.bom.gov.au/fwo/IDV60901/IDV60901.94870.json